When you browse on this site, cookies collect data to enhance your experience and personalize the content and advertising you see.
Visit our Privacy Policy to learn more. By continuing to use the site, you agree to this use of cookies and data.
EN

Hourly Weather Gweru

Today, 15 July, Wednesday

Time Temperature Precipitation Wind Pressure Humidity
00:00 +11°C° 0 mm 3 mps 646 mmHg 20%
01:00 +10°C° 0 mm 4 mps 646 mmHg 19%
02:00 +10°C° 0 mm 4 mps 646 mmHg 19%
03:00 +8°C° 0 mm 4 mps 646 mmHg 21%
04:00 +8°C° 0 mm 5 mps 646 mmHg 22%
05:00 +7°C° 0 mm 6 mps 646 mmHg 23%
06:00 +6°C° 0 mm 7 mps 647 mmHg 35%
07:00 +6°C° 0 mm 7 mps 648 mmHg 47%
08:00 +6°C° 0 mm 8 mps 648 mmHg 61%
09:00 +7°C° 0 mm 8 mps 649 mmHg 64%
10:00 +9°C° 0 mm 8 mps 650 mmHg 66%
11:00 +11°C° 0 mm 8 mps 650 mmHg 69%
12:00 +11°C° 0 mm 8 mps 650 mmHg 66%
13:00 +12°C° 0 mm 7 mps 650 mmHg 63%
14:00 +14°C° 0 mm 6 mps 650 mmHg 58%
15:00 +13°C° 0 mm 6 mps 650 mmHg 61%
16:00 +11°C° 0 mm 6 mps 650 mmHg 63%
17:00 +11°C° 0 mm 7 mps 650 mmHg 65%
18:00 +10°C° 0 mm 6 mps 650 mmHg 71%
19:00 +9°C° 0 mm 6 mps 651 mmHg 76%
20:00 +8°C° 0 mm 6 mps 651 mmHg 82%
21:00 +8°C° 0 mm 6 mps 651 mmHg 80%
22:00 +8°C° 0 mm 6 mps 651 mmHg 78%
23:00 +8°C° 0 mm 7 mps 651 mmHg 76%

Tomorrow, 16 July, Thursday

Time Temperature Precipitation Wind Pressure Humidity
00:00 +6°C° 0 mm 7 mps 651 mmHg 77%
01:00 +6°C° 0 mm 7 mps 651 mmHg 77%
02:00 +6°C° 0 mm 7 mps 650 mmHg 78%
03:00 +6°C° 0 mm 7 mps 650 mmHg 78%
04:00 +5°C° 0 mm 7 mps 650 mmHg 79%
05:00 +5°C° 0 mm 7 mps 650 mmHg 79%
06:00 +5°C° 0 mm 7 mps 651 mmHg 76%
07:00 +5°C° 0 mm 7 mps 651 mmHg 73%
08:00 +5°C° 0 mm 8 mps 652 mmHg 70%
09:00 +6°C° 0 mm 7 mps 652 mmHg 63%
10:00 +9°C° 0 mm 7 mps 652 mmHg 55%
11:00 +10°C° 0 mm 7 mps 653 mmHg 48%
12:00 +11°C° 0 mm 7 mps 652 mmHg 42%
13:00 +12°C° 0 mm 7 mps 652 mmHg 35%
14:00 +14°C° 0 mm 7 mps 652 mmHg 29%
15:00 +14°C° 0 mm 6 mps 651 mmHg 31%
16:00 +13°C° 0 mm 6 mps 651 mmHg 32%
17:00 +12°C° 0 mm 5 mps 651 mmHg 34%
18:00 +10°C° 0 mm 5 mps 651 mmHg 45%
19:00 +8°C° 0 mm 5 mps 651 mmHg 56%
20:00 +6°C° 0 mm 5 mps 651 mmHg 66%
21:00 +6°C° 0 mm 5 mps 651 mmHg 70%
22:00 +5°C° 0 mm 5 mps 651 mmHg 74%
23:00 +5°C° 0 mm 5 mps 650 mmHg 78%

Day after tomorrow, 17 July, Friday

Time Temperature Precipitation Wind Pressure Humidity
00:00 +3°C° 0 mm 5 mps 650 mmHg 83%
01:00 +3°C° 0 mm 5 mps 650 mmHg 88%
02:00 +2°C° 0 mm 5 mps 649 mmHg 92%
03:00 +3°C° 0 mm 5 mps 649 mmHg 91%
04:00 +3°C° 0 mm 6 mps 649 mmHg 89%
05:00 +3°C° 0 mm 6 mps 649 mmHg 87%
06:00 +4°C° 0 mm 6 mps 650 mmHg 84%
07:00 +4°C° 0 mm 6 mps 650 mmHg 80%
08:00 +5°C° 0 mm 6 mps 650 mmHg 76%
09:00 +7°C° 0 mm 6 mps 650 mmHg 68%
10:00 +9°C° 0 mm 6 mps 651 mmHg 59%
11:00 +11°C° 0 mm 6 mps 651 mmHg 51%
12:00 +13°C° 0 mm 6 mps 651 mmHg 46%
13:00 +14°C° 0 mm 6 mps 650 mmHg 41%
14:00 +16°C° 0 mm 6 mps 650 mmHg 36%
15:00 +15°C° 0 mm 5 mps 650 mmHg 37%
16:00 +14°C° 0 mm 5 mps 649 mmHg 39%
17:00 +14°C° 0 mm 5 mps 649 mmHg 40%
18:00 +12°C° 0 mm 4 mps 649 mmHg 52%
19:00 +8°C° 0 mm 4 mps 649 mmHg 63%
20:00 +6°C° 0 mm 4 mps 649 mmHg 74%
21:00 +6°C° 0 mm 4 mps 649 mmHg 80%
22:00 +5°C° 0 mm 3 mps 648 mmHg 86%
23:00 +4°C° 0 mm 3 mps 648 mmHg 92%

18 July, Saturday

Time Temperature Precipitation Wind Pressure Humidity
00:00 +4°C° 0 mm 3 mps 648 mmHg 92%
01:00 +4°C° 0 mm 3 mps 648 mmHg 92%
02:00 +4°C° 0 mm 3 mps 648 mmHg 91%
03:00 +4°C° 0 mm 4 mps 648 mmHg 92%
04:00 +4°C° 0 mm 4 mps 647 mmHg 92%
05:00 +4°C° 0 mm 4 mps 647 mmHg 92%
06:00 +4°C° 0 mm 4 mps 648 mmHg 89%
07:00 +5°C° 0 mm 5 mps 648 mmHg 85%
08:00 +6°C° 0 mm 5 mps 649 mmHg 81%
09:00 +9°C° 0 mm 5 mps 649 mmHg 68%
10:00 +12°C° 0 mm 5 mps 650 mmHg 55%
11:00 +15°C° 0 mm 5 mps 650 mmHg 42%
12:00 +16°C° 0 mm 5 mps 650 mmHg 37%
13:00 +19°C° 0 mm 5 mps 650 mmHg 33%
14:00 +20°C° 0 mm 5 mps 649 mmHg 28%
15:00 +19°C° 0 mm 5 mps 649 mmHg 30%
16:00 +18°C° 0 mm 4 mps 648 mmHg 33%
17:00 +18°C° 0 mm 4 mps 648 mmHg 35%
18:00 +14°C° 0 mm 4 mps 648 mmHg 44%
19:00 +12°C° 0 mm 3 mps 647 mmHg 53%
20:00 +9°C° 0 mm 3 mps 647 mmHg 62%
21:00 +9°C° 0 mm 3 mps 647 mmHg 67%
22:00 +8°C° 0 mm 3 mps 647 mmHg 71%
23:00 +8°C° 0 mm 3 mps 647 mmHg 76%

19 July, Sunday

Time Temperature Precipitation Wind Pressure Humidity
00:00 +7°C° 0 mm 3 mps 647 mmHg 82%
01:00 +7°C° 0 mm 3 mps 647 mmHg 88%
02:00 +5°C° 0 mm 3 mps 646 mmHg 93%
03:00 +5°C° 0 mm 3 mps 646 mmHg 94%
04:00 +6°C° 0 mm 2 mps 646 mmHg 95%
05:00 +5°C° 0 mm 2 mps 646 mmHg 96%
06:00 +6°C° 0 mm 2 mps 646 mmHg 93%
07:00 +7°C° 0 mm 3 mps 647 mmHg 90%
08:00 +8°C° 0 mm 3 mps 648 mmHg 87%
09:00 +11°C° 0 mm 3 mps 648 mmHg 70%
10:00 +14°C° 0 mm 3 mps 649 mmHg 52%
11:00 +19°C° 0 mm 3 mps 650 mmHg 35%
12:00 +20°C° 0 mm 3 mps 649 mmHg 31%
13:00 +21°C° 0 mm 4 mps 649 mmHg 27%
14:00 +22°C° 0 mm 4 mps 648 mmHg 23%
15:00 +21°C° 0 mm 4 mps 648 mmHg 23%
16:00 +21°C° 0 mm 4 mps 647 mmHg 24%
17:00 +20°C° 0 mm 4 mps 647 mmHg 25%
18:00 +17°C° 0 mm 4 mps 647 mmHg 33%
19:00 +14°C° 0 mm 4 mps 647 mmHg 40%
20:00 +12°C° 0 mm 4 mps 647 mmHg 48%
21:00 +11°C° 0 mm 4 mps 646 mmHg 54%
22:00 +10°C° 0 mm 3 mps 646 mmHg 61%
23:00 +9°C° 0 mm 3 mps 646 mmHg 67%

20 July, Monday

Time Temperature Precipitation Wind Pressure Humidity
00:00 +8°C° 0 mm 3 mps 646 mmHg 73%
01:00 +7°C° 0 mm 2 mps 645 mmHg 78%
02:00 +7°C° 0 mm 2 mps 645 mmHg 84%
03:00 +7°C° 0 mm 2 mps 645 mmHg 87%
04:00 +6°C° 0 mm 2 mps 645 mmHg 90%
05:00 +7°C° 0 mm 1 mps 645 mmHg 92%
06:00 +7°C° 0 mm 2 mps 645 mmHg 86%
07:00 +9°C° 0 mm 2 mps 646 mmHg 79%
08:00 +10°C° 0 mm 2 mps 647 mmHg 73%
09:00 +14°C° 0 mm 2 mps 647 mmHg 60%
10:00 +16°C° 0 mm 2 mps 648 mmHg 47%
11:00 +19°C° 0 mm 3 mps 648 mmHg 35%
12:00 +20°C° 0 mm 3 mps 648 mmHg 31%
13:00 +22°C° 0 mm 3 mps 648 mmHg 26%
14:00 +24°C° 0 mm 3 mps 647 mmHg 22%
15:00 +22°C° 0 mm 3 mps 647 mmHg 23%
16:00 +21°C° 0 mm 3 mps 646 mmHg 25%
17:00 +20°C° 0 mm 3 mps 646 mmHg 26%
18:00 +18°C° 0 mm 4 mps 646 mmHg 32%
19:00 +15°C° 0 mm 4 mps 646 mmHg 38%
20:00 +13°C° 0 mm 5 mps 646 mmHg 44%
21:00 +12°C° 0 mm 4 mps 646 mmHg 48%
22:00 +11°C° 0 mm 3 mps 645 mmHg 52%
23:00 +10°C° 0 mm 3 mps 645 mmHg 56%
Show more